| time (UTC) | temp C | wind direction | speed KPH | gust KPH | rain 1hr cm | rain 24hr cm | rain mn cm | humidity % | barometer mb |
| 20260503224528 | 21 | 64 | 3.2 | 0.0 | 0.00 | 0.00 | 0.00 | 42 | 1000.7 |
| 20260503223027 | 21 | 58 | 4.8 | 0.0 | 0.00 | 0.00 | 0.00 | 41 | 1000.8 |
| 20260503221526 | 21 | 51 | 4.8 | 0.0 | 0.00 | 0.00 | 0.00 | 41 | 1000.8 |
| 20260503220029 | 21 | 65 | 4.8 | 0.0 | 0.00 | 0.00 | 0.00 | 40 | 1000.9 |
| 20260503214524 | 21 | 60 | 3.2 | 0.0 | 0.00 | 0.00 | 0.00 | 41 | 1000.9 |
| 20260503213022 | 21 | 65 | 4.8 | 0.0 | 0.00 | 0.00 | 0.00 | 42 | 1000.9 |
| 20260503211521 | 20 | 43 | 4.8 | 0.0 | 0.00 | 0.00 | 0.00 | 42 | 1001.1 |
| 20260503210020 | 21 | 53 | 4.8 | 0.0 | 0.00 | 0.00 | 0.00 | 41 | 1001.4 |
| 20260503204517 | 20 | 63 | 4.8 | 0.0 | 0.00 | 0.00 | 0.00 | 43 | 1001.6 |
| 20260503203035 | 20 | 64 | 4.8 | 0.0 | 0.00 | 0.00 | 0.00 | 43 | 1001.7 |
| 20260503201511 | 20 | 68 | 6.4 | 0.0 | 0.00 | 0.00 | 0.00 | 42 | 1002.0 |
| 20260503200012 | 20 | 56 | 4.8 | 0.0 | 0.00 | 0.00 | 0.00 | 43 | 1002.1 |
| 20260503194514 | 19 | 66 | 6.4 | 0.0 | 0.00 | 0.00 | 0.00 | 42 | 1002.3 |
| 20260503193005 | 19 | 55 | 8.0 | 0.0 | 0.00 | 0.00 | 0.00 | 42 | 1002.6 |
| 20260503191504 | 18 | 83 | 6.4 | 0.0 | 0.00 | 0.00 | 0.00 | 43 | 1002.8 |
| 20260503190004 | 18 | 94 | 8.0 | 0.0 | 0.00 | 0.00 | 0.00 | 42 | 1002.7 |
| 20260503184605 | 18 | 72 | 8.0 | 0.0 | 0.00 | 0.00 | 0.00 | 44 | 1003.0 |
| 20260503183057 | 18 | 61 | 8.0 | 0.0 | 0.00 | 0.00 | 0.00 | 46 | 1003.0 |
| 20260503181600 | 17 | 76 | 4.8 | 0.0 | 0.00 | 0.00 | 0.00 | 49 | 1003.3 |
| 20260503180054 | 17 | 58 | 6.4 | 0.0 | 0.00 | 0.00 | 0.00 | 49 | 1003.5 |
| 20260503174548 | 16 | 66 | 8.0 | 0.0 | 0.00 | 0.00 | 0.00 | 50 | 1003.8 |
| 20260503173047 | 17 | 87 | 6.4 | 0.0 | 0.00 | 0.00 | 0.00 | 47 | 1003.9 |
| 20260503171548 | 17 | 27 | 4.8 | 0.0 | 0.00 | 0.00 | 0.00 | 49 | 1004.0 |
| 20260503100104 | 10 | 73 | 0.0 | 0.0 | 0.00 | 0.00 | 0.00 | 53 | 1008.1 |
| 20260503081550 | 9 | 66 | 0.0 | 0.0 | 0.00 | 0.00 | 0.00 | 53 | 1009.2 |
| 20260503071533 | 8 | 55 | 0.0 | 0.0 | 0.00 | 0.00 | 0.00 | 54 | 1009.4 |
| 20260503054533 | 10 | 74 | 0.0 | 0.0 | 0.00 | 0.00 | 0.00 | 50 | 1010.2 |
| 20260503053035 | 10 | 63 | 0.0 | 0.0 | 0.00 | 0.00 | 0.00 | 50 | 1010.3 |
| 20260503051521 | 10 | 38 | 0.0 | 0.0 | 0.00 | 0.00 | 0.00 | 48 | 1010.5 |
| 20260503050020 | 10 | 19 | 0.0 | 0.0 | 0.00 | 0.00 | 0.00 | 48 | 1010.5 |
| 20260503044517 | 10 | 18 | 0.0 | 0.0 | 0.00 | 0.00 | 0.00 | 49 | 1010.6 |
| 20260503043022 | 10 | 55 | 0.0 | 0.0 | 0.00 | 0.00 | 0.00 | 49 | 1010.6 |
| 20260503041514 | 10 | 56 | 0.0 | 0.0 | 0.00 | 0.00 | 0.00 | 48 | 1010.8 |
| 20260503040018 | 10 | 55 | 0.0 | 0.0 | 0.00 | 0.00 | 0.00 | 49 | 1010.8 |
| 20260503034511 | 10 | 55 | 0.0 | 0.0 | 0.00 | 0.00 | 0.00 | 50 | 1011.0 |
| 20260503033010 | 10 | 52 | 0.0 | 0.0 | 0.00 | 0.00 | 0.00 | 50 | 1011.1 |
| 20260503031511 | 10 | 52 | 0.0 | 0.0 | 0.00 | 0.00 | 0.00 | 49 | 1011.1 |
| 20260503030009 | 10 | 52 | 0.0 | 0.0 | 0.00 | 0.00 | 0.00 | 47 | 1011.3 |
| 20260503024509 | 10 | 52 | 0.0 | 0.0 | 0.00 | 0.00 | 0.00 | 47 | 1011.3 |
| 20260503023007 | 10 | 52 | 0.0 | 0.0 | 0.00 | 0.00 | 0.00 | 49 | 1011.4 |
| 20260503021507 | 10 | 52 | 0.0 | 0.0 | 0.00 | 0.00 | 0.00 | 49 | 1011.3 |
| 20260503020008 | 10 | 52 | 0.0 | 0.0 | 0.00 | 0.00 | 0.00 | 48 | 1011.3 |
| 20260503014508 | 11 | 52 | 0.0 | 0.0 | 0.00 | 0.00 | 0.00 | 47 | 1011.2 |
| 20260503013007 | 11 | 52 | 0.0 | 0.0 | 0.00 | 0.00 | 0.00 | 47 | 1011.2 |
| 20260503011506 | 12 | 52 | 0.0 | 0.0 | 0.00 | 0.00 | 0.00 | 45 | 1011.1 |
| 20260503010006 | 12 | 52 | 0.0 | 0.0 | 0.00 | 0.00 | 0.00 | 43 | 1011.1 |
| 20260503004506 | 13 | 52 | 0.0 | 0.0 | 0.00 | 0.00 | 0.00 | 40 | 1011.0 |
| 20260503003005 | 13 | 52 | 0.0 | 0.0 | 0.00 | 0.00 | 0.00 | 38 | 1011.1 |
| 20260503001502 | 13 | 60 | 1.6 | 0.0 | 0.00 | 0.00 | 0.00 | 37 | 1011.2 |
| 20260503000001 | 14 | 46 | 0.0 | 0.0 | 0.00 | 0.00 | 0.00 | 35 | 1011.4 |
| 20260502234604 | 14 | 85 | 1.6 | 0.0 | 0.00 | 0.00 | 0.00 | 35 | 1011.6 |
| 20260502233059 | 15 | 73 | 1.6 | 0.0 | 0.00 | 0.00 | 0.00 | 34 | 1011.6 |
| 20260502231609 | 15 | 73 | 1.6 | 0.0 | 0.00 | 0.00 | 0.00 | 34 | 1011.7 |
| 20260502230057 | 15 | 54 | 1.6 | 0.0 | 0.00 | 0.00 | 0.00 | 35 | 1011.9 |